Theta_e
309 309 309 309 309 309 308 308 309 309 310 310 310 311 311 310 310 311 314 315 316 316 314 317 321 322 321 320 319 320 320 324 326 327 329 331 326 325 326 327 330 330 333 351 358
308 308 308 308 308 309 308 309 308 308 308 308 309 310 310 309 310 312 313 313 313 313 314 316 322 322 322 319 320 319 320 322 325 327 329 329 326 326 323 323 327 328 340 350 351
308 308 308 308 308 308 308 308 309 309 310 309 309 308 308 309 313 318 313 314 312 314 313 315 319 322 321 319 319 319 319 321 322 323 326 326 325 325 324 324 324 326 334 348 351
307 307 307 307 307 308 308 308 308 309 309 309 308 308 307 311 318 323 316 316 315 322 323 315 320 322 324 323 320 319 319 320 320 321 322 321 323 323 323 324 325 325 326 325 348
304 304 304 303 304 305 305 307 307 308 309 308 308 308 310 314 316 316 313 317 322 322 321 319 320 322 324 325 326 323 321 320 320 320 321 320 320 321 322 323 323 322 323 323 325
302 302 301 300 301 301 302 303 305 307 308 308 308 308 312 316 313 312 311 312 318 320 321 322 322 322 322 324 326 326 325 322 320 320 319 319 319 319 320 321 321 321 322 322 323
301 300 300 301 303 302 302 302 305 307 307 309 310 310 313 314 312 311 312 312 314 318 321 321 321 321 321 323 324 325 326 324 322 321 320 319 318 319 319 320 320 320 321 321 322
300 300 299 303 305 306 306 306 305 307 308 311 311 312 314 312 311 312 311 312 313 317 318 318 320 322 322 322 323 323 325 326 325 324 321 319 319 319 319 319 319 320 320 321 321
302 299 299 303 305 306 306 305 305 309 310 310 313 314 317 313 311 312 315 315 312 313 316 316 318 322 322 324 324 325 326 325 325 324 323 321 321 320 320 321 321 320 320 321 321
302 300 300 301 305 306 305 306 307 309 311 312 314 316 316 315 316 317 319 319 320 316 315 317 317 320 321 324 325 325 326 325 325 325 324 325 322 321 321 322 321 321 321 321 321
297 297 297 298 304 305 307 312 314 318 315 316 316 316 315 313 314 316 318 319 320 320 317 318 318 318 320 321 322 323 324 325 326 325 326 326 326 324 322 320 321 320 320 321 322
296 296 297 298 305 307 309 312 310 308 311 312 312 312 311 311 313 315 312 318 319 321 319 320 320 318 317 319 321 321 323 325 325 326 326 325 325 325 324 323 323 321 321 321 322
296 296 296 298 308 310 311 309 308 309 313 313 314 313 314 315 316 319 314 318 321 320 321 321 321 320 319 318 318 320 323 324 325 325 325 324 324 324 324 324 324 324 323 322 323
296 296 297 303 310 312 313 309 308 311 316 315 314 317 318 318 320 319 318 320 323 323 321 322 321 321 319 320 318 319 319 322 324 326 325 324 325 324 323 324 324 323 323 323 324
295 296 298 305 311 313 311 310 310 312 319 314 319 318 318 319 319 318 318 319 321 320 321 322 321 322 321 321 320 319 319 321 322 323 324 323 325 325 323 324 324 324 324 324 324
295 297 301 311 312 312 311 311 313 322 320 314 316 318 318 317 317 316 315 319 318 318 318 319 318 319 320 323 320 320 320 321 320 321 323 322 323 323 322 323 324 325 325 324 324
296 299 305 309 313 311 312 313 318 319 315 314 315 315 315 315 314 314 313 317 317 319 321 320 318 318 319 323 323 321 323 327 325 323 324 322 322 322 322 323 323 324 324 325 325
296 303 307 310 310 311 312 315 319 315 315 313 314 315 315 314 314 315 318 318 316 316 321 322 323 321 319 321 323 322 322 325 328 325 322 321 323 322 322 323 323 324 324 325 325
301 307 308 312 310 309 312 316 315 313 312 313 313 312 313 312 313 314 316 316 314 318 322 328 324 319 319 321 323 322 322 322 322 323 327 322 322 322 323 323 323 323 324 325 326
303 308 309 308 307 308 313 314 311 308 307 306 308 309 309 309 312 314 316 314 315 320 320 320 326 321 322 322 323 324 323 324 323 332 333 325 324 323 323 324 323 323 324 333 337
305 309 310 307 304 311 313 307 306 305 304 304 306 307 306 307 308 309 310 311 315 320 319 317 324 324 322 326 326 322 326 326 325 324 325 324 324 326 325 325 324 324 338 342 338
305 309 307 305 310 308 307 306 305 304 304 305 306 306 311 312 311 313 314 314 315 316 321 318 320 325 321 322 323 323 322 329 333 331 325 328 337 333 331 332 333 342 343 342 343
306 309 307 305 308 306 306 305 304 304 305 306 307 307 307 312 315 315 315 315 312 315 317 315 322 324 329 324 325 327 324 323 326 327 329 328 333 332 331 332 335 340 339 340 340
308 307 307 306 306 306 306 306 305 304 305 305 307 308 309 310 309 313 311 314 313 314 314 315 318 322 324 323 324 327 326 326 325 333 334 330 329 335 335 336 336 335 336 341 341
306 306 305 305 305 306 306 306 306 306 305 306 307 308 308 312 311 310 310 310 311 313 314 314 318 318 319 319 319 323 327 326 328 329 330 328 328 333 334 335 334 334 336 339 338
305 304 303 303 305 306 306 307 306 306 305 307 308 308 307 309 310 312 312 312 312 313 313 314 317 315 318 318 321 322 326 325 326 326 326 327 328 324 328 331 333 333 334 335 334
301 301 303 303 304 305 306 306 305 304 306 306 306 307 308 309 310 310 310 311 312 312 313 314 316 320 322 323 324 329 329 326 326 327 327 327 328 333 333 331 331 332 331 331 330
Wind_Speed
18 17 18 18 18 19 20 20 21 20 20 19 20 20 22 25 30 27 27 21 12 22 25 14 15 18 21 21 22 14 16 22 30 27 22 18 11 14 14 16 8 10 10 11 11
19 19 18 18 17 18 18 18 19 20 20 21 20 19 20 24 27 32 30 25 24 22 13 20 16 18 17 19 20 19 16 30 24 25 27 18 14 14 9 15 12 12 6 4 12
20 20 20 20 20 20 20 20 19 20 21 22 21 21 19 21 21 2 4 13 20 19 23 20 25 18 22 22 24 23 27 22 24 25 25 15 14 14 16 16 18 18 15 13 12
23 23 23 23 23 23 22 22 22 21 21 20 21 20 18 14 7 5 4 5 4 12 19 24 20 24 23 25 23 28 28 24 28 21 16 17 18 19 16 16 13 12 11 6 8
26 26 27 28 28 27 27 25 24 23 22 23 20 16 12 10 17 12 5 10 6 10 18 20 22 23 28 24 25 29 26 25 24 25 22 15 24 25 22 17 14 9 11 12 10
28 29 30 31 31 31 31 31 30 27 25 22 18 11 13 19 4 5 7 11 15 15 17 18 17 20 21 27 28 23 28 27 26 23 24 23 22 22 22 17 18 18 18 15 16
29 30 31 32 30 33 34 34 33 29 24 20 13 10 13 24 8 6 10 12 14 19 17 17 20 15 16 24 22 24 27 24 22 26 26 21 27 32 24 21 22 21 20 20 19
30 31 33 32 32 33 34 35 35 29 22 8 6 12 9 7 8 13 14 16 12 13 16 18 15 19 21 18 21 15 22 25 29 24 25 22 33 26 25 25 27 25 21 21 22
31 33 36 33 34 35 36 36 23 11 6 4 8 13 11 3 10 13 15 15 18 17 12 11 12 17 17 20 20 25 22 28 27 24 23 23 36 18 27 26 29 25 23 21 20
32 36 39 39 34 35 34 15 11 6 3 7 10 6 11 8 5 7 8 12 10 15 14 14 10 15 19 18 22 25 27 26 25 22 27 27 29 21 11 21 15 19 24 25 23
35 37 38 42 37 27 20 15 4 7 14 12 13 16 8 8 9 13 10 11 11 12 18 17 16 23 26 26 27 25 27 27 23 24 22 28 26 22 22 17 18 18 20 21 25
38 40 41 39 24 9 9 8 8 9 16 23 29 30 27 18 13 14 20 11 19 19 20 18 22 24 24 24 26 27 28 29 20 14 21 22 22 23 25 26 23 20 19 21 21
38 41 42 34 13 9 9 7 7 13 9 16 9 10 9 14 14 16 16 18 19 20 21 23 24 21 23 24 26 26 27 26 27 21 17 13 22 24 25 22 23 23 24 22 20
39 41 41 29 8 14 3 8 9 10 7 14 8 8 8 8 10 14 17 17 16 22 21 20 21 24 23 21 23 26 26 25 25 23 18 26 19 23 24 24 24 23 24 24 24
40 42 34 8 15 10 11 11 11 10 8 6 11 6 2 8 12 15 14 16 20 20 17 22 21 24 25 26 23 26 21 21 23 23 22 25 16 19 21 26 28 27 25 24 24
43 43 24 7 12 7 12 12 9 8 12 3 4 4 9 14 14 15 17 21 19 22 24 28 26 25 18 25 24 18 22 21 21 19 20 26 22 21 20 23 21 20 27 25 24
44 35 17 9 11 14 12 11 8 10 11 4 9 13 18 21 25 25 24 22 21 21 21 24 28 30 17 18 24 22 15 11 13 16 19 26 25 21 16 19 21 22 21 20 23
44 25 11 7 10 12 13 11 13 15 19 24 18 21 24 27 26 13 8 16 18 22 19 22 25 20 14 26 19 28 24 12 14 16 19 26 23 25 28 7 7 7 16 20 20
37 18 9 2 10 13 10 10 15 21 21 20 21 24 23 20 9 17 19 20 20 15 7 8 22 16 19 19 31 22 18 28 26 5 9 17 21 19 13 13 16 12 11 8 10
26 22 11 4 13 15 10 14 18 21 26 24 28 25 28 26 19 15 12 13 17 10 4 5 10 12 4 9 29 17 22 20 15 9 12 15 24 16 20 15 13 20 19 7 5
14 7 9 10 16 9 8 15 25 21 22 23 25 29 28 27 26 26 25 18 11 4 4 2 7 9 7 16 22 15 10 13 14 17 12 13 10 8 15 16 20 15 13 9 9
10 7 12 17 11 7 9 17 18 20 18 19 20 16 13 21 21 22 21 16 14 12 9 4 4 5 14 25 20 25 23 23 11 10 16 15 5 13 10 9 13 14 10 9 7
8 11 3 7 7 11 16 18 16 15 15 13 14 17 16 7 6 11 7 2 8 14 3 4 1 5 9 10 8 10 18 22 26 15 17 15 7 4 7 8 4 12 10 9 12
6 6 8 8 8 16 16 16 17 10 14 18 21 12 9 14 14 10 17 7 10 20 9 2 3 9 11 15 9 11 18 23 24 13 14 13 7 15 10 12 9 10 6 12 14
5 6 8 8 13 15 15 15 18 16 18 18 14 15 16 8 20 14 17 15 15 3 4 2 6 14 20 25 21 22 24 24 22 20 16 18 13 11 6 13 13 12 7 15 12
6 10 8 14 13 18 14 12 18 21 21 17 12 23 20 18 16 22 20 16 12 13 2 1 5 14 22 21 19 20 19 24 24 20 19 21 6 6 2 13 13 14 11 17 17
11 11 8 10 12 12 12 19 17 19 12 21 19 21 21 21 19 23 22 22 21 20 17 9 4 3 8 9 10 10 24 26 25 21 25 18 9 19 17 18 15 16 16 17 16
Wind_Direction
357 354 349 344 340 336 330 327 326 324 320 317 313 313 311 312 312 299 270 247 262 241 256 269 234 226 229 234 230 229 250 240 243 248 245 259 191 228 251 251 194 201 263 78 135
354 351 347 343 338 330 325 322 322 319 316 314 312 312 310 311 306 287 272 250 245 241 258 227 232 219 217 227 224 222 232 241 246 253 258 248 190 231 207 227 202 200 165 165 163
349 345 342 338 333 327 324 322 316 313 311 309 308 312 309 316 297 223 24 186 225 244 228 238 244 223 232 225 222 219 239 250 242 256 264 280 243 234 200 224 218 199 192 165 192
347 343 339 335 331 327 323 321 317 314 310 305 303 306 308 305 285 107 149 144 239 233 222 223 229 239 232 233 227 232 240 243 260 260 240 264 265 222 229 247 205 209 146 190 199
348 345 342 338 333 329 325 321 317 314 311 307 303 300 306 245 252 257 254 251 226 199 212 214 221 224 237 239 246 237 248 247 252 254 258 236 248 254 238 240 252 244 176 210 216
349 347 344 339 333 328 324 320 317 312 309 303 295 286 261 266 256 241 264 231 234 218 221 230 229 231 242 236 249 246 238 248 249 243 243 243 241 248 244 250 242 239 226 227 232
348 348 344 337 330 325 320 316 312 309 305 300 274 235 266 252 293 251 248 249 234 231 237 227 242 240 243 253 249 261 259 249 241 244 244 242 248 240 241 232 241 239 236 243 242
344 343 341 334 326 319 313 310 311 309 306 288 235 207 250 267 263 236 244 245 237 251 252 261 259 256 250 260 246 245 255 247 243 231 239 238 251 238 234 238 234 232 231 232 229
338 341 343 333 324 317 314 311 309 310 296 221 176 216 267 205 232 233 222 226 225 225 231 242 248 248 236 239 244 238 242 234 246 237 218 215 245 248 256 237 227 229 233 232 222
336 340 342 336 325 319 315 326 298 260 216 210 267 213 234 255 173 219 217 225 221 209 218 222 231 228 228 229 230 235 234 240 256 233 233 219 234 245 261 247 221 222 225 231 227
342 344 343 340 334 329 330 318 231 194 212 246 259 241 279 253 232 225 192 219 224 215 215 200 219 227 226 221 247 250 267 253 237 229 251 227 238 237 228 228 230 218 229 227 227
344 343 343 339 341 358 329 345 8 313 291 264 257 261 268 274 260 252 232 214 216 227 220 238 229 244 245 240 237 241 254 261 259 257 242 239 245 236 232 218 218 212 218 223 225
344 343 341 336 328 300 326 344 318 322 271 295 225 257 242 205 235 252 202 215 245 227 241 247 246 231 232 251 244 242 242 246 256 248 228 258 257 247 240 241 230 226 218 227 231
343 342 340 333 293 328 285 330 306 330 278 265 183 195 173 227 228 224 196 229 231 244 254 265 261 249 261 238 243 243 239 243 254 248 237 206 248 240 232 233 229 227 227 220 224
341 341 337 322 306 330 329 320 312 275 284 120 125 95 185 248 331 241 198 226 249 269 236 255 253 248 246 238 234 245 243 244 237 252 257 250 252 252 239 226 219 222 221 223 219
339 341 334 340 272 321 311 313 275 245 264 71 24 271 260 263 273 290 252 213 246 267 270 270 269 267 251 280 245 231 238 241 239 230 235 238 241 244 239 228 230 217 214 215 216
338 340 325 305 326 322 315 282 265 246 330 24 327 311 295 293 291 285 276 264 245 239 251 262 257 250 245 230 258 209 211 228 226 222 234 228 228 237 261 226 224 215 210 211 210
334 336 313 292 326 321 299 272 268 280 306 338 342 315 293 287 280 290 266 262 264 275 278 262 261 236 243 250 238 211 210 212 209 220 227 223 227 227 232 207 307 261 208 217 211
335 324 281 262 320 314 283 269 301 328 336 323 304 295 286 299 285 290 283 288 284 317 276 272 254 226 231 230 227 214 206 217 237 263 296 224 208 236 215 209 205 214 217 206 227
323 302 264 331 323 289 264 273 323 340 334 323 304 299 292 287 295 289 275 286 293 288 345 309 287 236 290 303 272 188 231 215 239 222 229 230 202 208 193 195 212 209 214 157 245
300 304 78 326 311 262 282 332 334 328 310 300 301 293 285 287 287 277 279 287 305 306 293 150 263 294 220 195 216 193 198 253 242 245 251 254 221 343 164 195 187 205 129 141 194
298 303 11 338 293 359 326 334 313 322 326 321 313 290 294 300 291 293 274 262 11 341 312 87 275 285 297 288 315 211 222 186 236 224 240 267 14 339 69 110 94 85 102 112 121
302 296 201 293 332 333 328 327 334 332 335 331 315 324 314 280 266 247 247 341 337 285 5 5 281 302 308 225 264 262 232 240 215 229 228 242 172 337 106 108 88 118 117 144 149
292 311 343 307 352 341 332 322 318 347 344 329 310 321 347 316 315 297 299 5 342 290 97 330 256 255 276 294 335 249 232 221 235 218 225 241 189 169 154 136 135 124 151 160 144
306 337 337 301 329 310 302 310 316 337 328 329 309 326 336 306 317 306 330 295 308 93 92 51 261 267 279 282 270 246 255 212 228 222 230 245 296 170 113 140 134 138 158 143 131
328 341 334 301 302 292 299 341 339 326 334 311 324 314 314 303 296 300 308 307 296 288 283 202 274 306 295 283 254 250 253 204 218 227 227 245 206 331 258 135 129 128 140 121 122
356 308 299 288 297 312 334 330 332 332 302 311 311 307 300 304 309 299 290 279 269 274 280 281 279 304 278 216 215 249 234 197 204 208 225 234 132 169 153 139 137 131 129 125 124